Simultaneous Nadir Overpasses (SNOs) Predictions

Prediction of SNOs between GOES-14 and AQUA Satellite Orbit:

Table of predicted SNOs for the next 14.0 days since TLE Epoch: 11/27/2021
Index Date Time (GOES-14) GOES-14 Lat,Lon AQUA Lat,Lon Distance(km) Time Diff (sec)
1 11/27/2021 08:42:05 0.06,-104.43 0.44,-106.16 196.78 80
2 11/29/2021 08:27:14 0.06,-104.43 -0.22,-103.20 140.23 80
3 11/29/2021 20:48:36 -0.04,-104.15 -0.96,-108.38 481.01 80
4 12/01/2021 08:15:02 0.07,-104.43 -0.83,-100.24 477.30 80
5 12/01/2021 20:36:26 -0.05,-104.16 -0.30,-105.42 143.47 80
6 12/03/2021 20:26:54 -0.05,-104.16 0.32,-102.46 193.60 80
7 12/04/2021 08:48:09 0.03,-104.46 0.73,-107.62 360.65 80
8 12/06/2021 08:35:57 0.04,-104.45 0.11,-104.66 24.48 80
9 12/08/2021 08:21:05 0.04,-104.44 -0.52,-101.69 312.11 80
10 12/08/2021 20:42:29 -0.02,-104.14 -0.59,-106.88 311.92 80
11 12/10/2021 20:32:57 -0.02,-104.14 0.05,-103.92 25.53 80
